#timestamp,LO_Frequency,Hit,StdDev 
1549803615.4,286047000.8,N
1549803635.2,286047000.8,N
1549803655.1,286046999.3,N
1549803656.0,286046999.3,N
1549803675.8,286046999.0,N
1549803695.6,286046997.2,N
1549803715.5,286046997.1,N
1549803735.3,286046997.2,N
1549803755.2,286046999.2,N
1549803775.9,286046999.0,N
1549803795.7,286046998.7,N
1549803815.6,286046998.1,N
1549803835.4,286047000.6,N
1549803855.2,286047002.0,N
1549803875.1,286047002.8,N
1549803876.0,286047002.8,N
1549803895.8,286047002.5,N
1549803915.7,286047000.9,N
1549803935.5,286047002.2,N
1549803955.3,286047002.0,N
1549803975.2,286047002.4,N
1549803995.9,286047001.6,N
1549804015.7,286047002.1,N
1549804035.6,286047000.0,N
1549804055.4,286047000.5,N
1549804075.2,286046998.1,N
1549804095.1,286047002.2,N
1549804096.0,286047002.2,N
1549804115.8,286047000.4,N
1549804135.7,286046998.5,N
1549804155.5,286046999.1,N
1549804175.3,286046999.5,N
1549804195.2,286046996.9,N
1549804215.0,286046997.0,N
1549804215.9,286046997.0,N
1549804235.7,286047001.1,N
1549804255.6,286046996.5,N
1549804275.4,286046997.2,N
1549804295.3,286046996.8,N
1549804315.1,286046996.8,N
1549804316.0,286046996.8,N
1549804335.8,286046997.4,N
1549804355.7,286046997.1,N
1549804375.5,286046994.9,N
1549804395.3,286046995.2,N
1549804415.2,286046997.5,N
1549804435.0,286046997.6,N
1549804435.9,286046997.6,N
1549804455.8,286046997.8,N
1549804475.6,286046997.7,N
1549804495.4,286046997.4,N
1549804515.3,286046997.7,N
1549804535.1,286046997.1,N
1549804555.8,286046997.0,N
1549804575.7,286046997.8,N
1549804595.5,286046995.0,N
1549804615.4,286046997.5,N
1549804635.2,286046997.1,N
1549804655.0,286046997.7,N
1549804655.9,286046997.7,N
1549804675.8,286046996.7,N
1549804725.6,286046994.9,E
1549804735.6,286046998.9,N
1549804755.4,286047002.3,P
1549804775.2,286047002.3,N
1549804795.1,286047002.2,N
1549804796.0,286047002.2,N
1549804815.8,286047002.2,N
1549804835.7,286046999.7,N
1549804855.5,286047002.2,N
1549804875.3,286047002.7,N
1549804895.2,286047001.6,N
1549804915.9,286046999.8,N
1549804935.7,286047000.2,N
1549804955.6,286047000.8,N
1549804975.4,286046998.1,N
1549804995.2,286046998.3,N
1549805015.1,286047000.4,N
1549805016.0,286047000.4,N
1549805035.8,286047000.7,N
1549805055.7,286046998.2,N
1549805075.5,286046998.8,N
1549805095.3,286046998.2,N
1549805115.2,286046999.1,N
1549805135.0,286046999.0,N
1549805135.9,286046999.0,N
1549805155.7,286046998.5,N
1549805175.6,286047000.7,N
1549805195.4,286047001.1,N
1549805215.3,286047000.1,N
1549805235.1,286047000.0,N
1549805236.0,286047000.0,N
1549805255.8,286047000.8,N
1549805275.7,286047001.1,N
1549805295.5,286047000.6,N
1549805315.3,286047002.1,N
1549805335.2,286046999.7,N
1549805355.0,286047004.0,Y
1549805355.9,286047004.0,P
1549805375.8,286047004.0,N
1549805395.6,286047001.5,N
1549805415.4,286047002.2,N
1549805435.3,286047002.6,N
1549805455.1,286047000.0,N
1549805475.9,286046998.1,N
1549805495.7,286046999.1,N
1549805515.5,286046998.2,N
1549805535.4,286046999.5,N
1549805555.2,286046997.4,N
1549805575.0,286046997.7,N
1549805575.9,286046997.7,N
1549805595.8,286046997.9,N
1549805615.6,286046997.6,N
1549805635.4,286046997.0,N
1549805655.3,286046997.0,N
1549805675.1,286046997.7,N
1549805695.9,286046997.7,N
1549805715.7,286046996.7,N
1549805735.5,286046998.9,N
1549805755.4,286046998.7,N
1549805775.2,286046999.2,N
1549805795.1,286046999.0,N
1549805796.0,286046999.0,N
1549805815.8,286046996.8,N
1549805835.6,286046995.3,N
1549805855.5,286046997.8,N
1549805875.3,286046995.7,N
1549805895.1,286046997.4,N
1549805915.9,286046995.2,N
1549805935.7,286046997.5,N
1549805955.6,286046997.4,N
1549805975.4,286046998.3,N
1549805995.2,286047001.2,N
1549806015.1,286047001.2,N
1549806016.0,286047001.2,N
1549806035.8,286047000.2,N
1549806055.7,286046999.9,N
1549806075.5,286047002.4,N
1549806095.3,286046999.7,N
1549806115.2,286047000.1,N
1549806135.9,286047001.0,N
1549806155.7,286047002.4,N
1549806175.6,286047000.7,N
1549806195.4,286046996.6,N
1549806215.2,286046996.2,N
1549806235.1,286046996.4,N
1549806236.0,286046996.4,N
1549806255.8,286046994.7,N
1549806275.7,286046991.1,Y
1549806295.5,286046988.8,P
1549806315.3,286046987.8,N
1549806335.2,286046985.6,N
1549806355.0,286046987.8,N
1549806355.9,286046987.8,N
1549806375.7,286046987.9,N
1549806395.6,286046987.8,Y
1549806415.4,286047000.0,P
1549806435.3,286047004.2,N
1549806455.1,286047004.1,N
1549806456.0,286047004.1,N
1549806475.8,286047003.4,N
1549806495.7,286047003.1,N
1549806515.5,286047006.7,N
1549806535.3,286047006.7,N
1549806555.2,286047006.6,N
1549806575.0,286047009.1,N
1549806575.9,286047009.1,N
1549806595.8,286047009.1,N
1549806615.6,286047007.3,N
1549806635.4,286047007.2,N
1549806655.3,286047004.7,N
1549806675.1,286047005.5,N
1549806695.8,286047005.8,N
1549806715.7,286047007.4,N
1549806735.5,286047004.6,N
1549806755.4,286047005.8,N
1549806775.2,286047005.6,N
1549806795.0,286047005.6,N
1549806795.9,286047005.6,N
1549806815.8,286047005.8,N
1549806835.6,286047005.5,N
1549806855.4,286047005.7,N
1549806875.3,286047004.5,N
1549806895.1,286047007.6,N
1549806915.8,286047007.0,N
1549806935.7,286047008.4,N
1549806955.5,286047008.1,Y
1549806975.4,286047003.8,P
1549806995.2,286047001.7,N
1549807015.0,286047002.7,N
1549807015.9,286047002.7,N
1549807035.8,286047002.0,N
1549807055.6,286047004.4,Y
1549807075.4,286046996.5,P
1549807095.3,286046996.7,N
1549807115.1,286046998.7,N
1549807135.9,286046997.2,N
1549807155.7,286046999.3,N
1549807175.5,286046998.8,N
1549807195.4,286046998.9,N
